Denver, CO

9:37 PM MDT on April 27, 2017 (GMT -0600)
Denver International

Weather History for KDEN - October, 2011

Change the Weather History Date:

Thursday, October 20, 2011

  Actual Average Record
Temperature  
Mean Temperature 53 °F 49 °F  
Max Temperature 71 °F 64 °F 83 °F (1950)
Min Temperature 35 °F 35 °F 21 °F (1995)
Degree Days  
Heating Degree Days 12 16  
Month to date heating degree days 199 244  
Since 1 July heating degree days 294 385  
Cooling Degree Days 0 0  
Month to date cooling degree days 23 1  
Year to date cooling degree days 964 765  
Growing Degree Days 2 (Base 50)    
Moisture  
Dew Point 22 °F    
Average Humidity 36    
Maximum Humidity 59    
Minimum Humidity 12    
Precipitation  
Precipitation 0.00 in 0.03 in 0.97 in (1965)
Month to date precipitation 1.10 0.71  
Year to date precipitation 15.37 13.03  
Snow  
Snow 0.00 in - - ()
Month to date snowfall T  
Since 1 July snowfall T  
Since 1 September snowfall T  
Snow Depth 0.00 in    
Sea Level Pressure  
Sea Level Pressure 29.94 in    
Wind  
Wind Speed 10 mph (SW)    
Max Wind Speed 20 mph    
Max Gust Speed 22 mph    
Visibility 10 miles    
Events      
T = Trace of Precipitation, MM = Missing Value Source: NWS Daily Summary

Daily Weather History Graph

Daily Weather History Graph

Search for Another Location

Airport or City:

Trip Planner

Search our weather history database for the weather conditions in past years. The results will help you decide how hot, cold, wet, or windy it might be!

Date:

Astronomy

Oct. 20, 2011 Rise Set
Actual Time 7:14 AM MDT 6:12 PM MDT
Civil Twilight 6:46 AM MDT 6:39 PM MDT
Nautical Twilight 6:15 AM MDT 7:11 PM MDT
Astronomical Twilight 5:43 AM MDT 7:42 PM MDT
Moon 12:02 AM MDT (10/20) 2:22 PM MDT (10/20)
Length of Visible Light 11h 53m
Length of Day
10h 58m
Last Quarter, 43% of the Moon is Illuminated
Oct 20
Last Quarter
Oct 26
New
Nov 2
First Quarter
Nov 10
Full
Nov 18
Last Quarter

Hourly Weather History & Observations

Time (MDT) Temp. Windchill Dew Point Humidity Pressure Visibility Wind Dir Wind Speed Gust Speed Precip Events Conditions
12:53 AM 39.9 °F 32.1 °F 24.1 °F 53% 29.88 in 10.0 mi SW 13.8 mph - N/A   Clear
1:53 AM 37.9 °F - 24.1 °F 57% 29.90 in 10.0 mi Calm Calm - N/A   Clear
2:53 AM 37.0 °F 31.6 °F 24.1 °F 59% 29.89 in 10.0 mi West 6.9 mph - N/A   Clear
3:53 AM 37.0 °F 29.3 °F 23.0 °F 57% 29.87 in 10.0 mi WSW 11.5 mph - N/A   Clear
4:53 AM 35.1 °F 27.4 °F 23.0 °F 61% 29.88 in 10.0 mi WSW 10.4 mph - N/A   Partly Cloudy
5:53 AM 39.9 °F 32.1 °F 21.9 °F 49% 29.89 in 10.0 mi SW 13.8 mph - N/A   Partly Cloudy
6:53 AM 37.9 °F 29.6 °F 21.9 °F 53% 29.91 in 10.0 mi SW 13.8 mph - N/A   Partly Cloudy
7:53 AM 44.1 °F 37.1 °F 21.9 °F 42% 29.93 in 10.0 mi SW 15.0 mph - N/A   Partly Cloudy
8:53 AM 52.0 °F - 23.0 °F 32% 29.94 in 10.0 mi WSW 10.4 mph - N/A   Partly Cloudy
9:53 AM 61.0 °F - 23.0 °F 23% 29.94 in 10.0 mi West 6.9 mph - N/A   Partly Cloudy
10:53 AM 64.0 °F - 21.0 °F 19% 29.94 in 10.0 mi North 9.2 mph - N/A   Partly Cloudy
11:53 AM 66.0 °F - 19.0 °F 17% 29.93 in 10.0 mi North 16.1 mph - N/A   Partly Cloudy
12:53 PM 68.0 °F - 19.0 °F 15% 29.92 in 10.0 mi NNW 13.8 mph - N/A   Partly Cloudy
1:53 PM 70.0 °F - 19.0 °F 14% 29.91 in 10.0 mi North 11.5 mph - N/A   Partly Cloudy
2:53 PM 70.0 °F - 17.1 °F 13% 29.91 in 10.0 mi NNE 10.4 mph 19.6 mph N/A   Partly Cloudy
3:53 PM 70.0 °F - 16.0 °F 13% 29.91 in 10.0 mi ENE 8.1 mph - N/A   Partly Cloudy
4:53 PM 68.0 °F - 17.1 °F 14% 29.93 in 10.0 mi NE 5.8 mph - N/A   Partly Cloudy
5:53 PM 60.8 °F - 21.2 °F 22% 30.06 in 10.0 mi East 8.1 mph - N/A   Partly Cloudy
6:53 PM 53.1 °F - 21.9 °F 30% 30.01 in 10.0 mi SE 8.1 mph - N/A   Partly Cloudy
7:53 PM 46.9 °F - 23.0 °F 39% 30.03 in 10.0 mi SSE 9.2 mph - N/A   Partly Cloudy
8:53 PM 45.0 °F 38.9 °F 24.1 °F 44% 30.02 in 10.0 mi SSE 12.7 mph - N/A   Partly Cloudy
9:53 PM 44.1 °F 38.6 °F 23.0 °F 43% 30.02 in 10.0 mi South 10.4 mph - N/A   Clear
10:53 PM 46.9 °F - 23.0 °F 39% 30.00 in 10.0 mi SSW 9.2 mph - N/A   Clear
11:53 PM 41.0 °F - 24.1 °F 51% 30.01 in 10.0 mi Calm Calm - N/A   Clear